Regional Weather Roundup
Issued by NWS

Home | Current Version | Previous Version | Text Only | Print | Product List | Glossary On
Versions: 1 2 3 4 5 6 7 8 9 10 11 12 13 14 15 16 17 18 19 20 21 22 23 24 25 26 27 28 29 30 31 32 33 34 35 36 37 38 39 40 41 42 43 44 45 46 47 48 49 50
000
ASUS44 KLUB 290410
RWRTX
WEST TEXAS WEATHER ROUNDUP
NATIONAL WEATHER SERVICE LUBBOCK TX
1100 PM CDT SAT MAY 28 2016

NOTE: "FAIR" INDICATES FEW OR NO CLOUDS BELOW 12,000 FEET WITH NO
SIGNIFICANT WEATHER AND/OR OBSTRUCTIONS TO VISIBILITY.

TXZ004-006>008-010-012-014-016-OKZ002-290500-
TEXAS PANHANDLE/OKLAHOMA PANHANDLE

CITY           SKY/WX    TMP DP  RH WIND       PRES   REMARKS
AMARILLO       CLEAR     62  49  62 SE12      30.07R
BORGER         CLEAR     73  49  42 SE14      30.04R
CANADIAN       CLEAR     66  53  62 SE6       30.03R
DALHART        CLEAR     65  47  52 E10       30.07R
DUMAS          CLEAR     64  47  54 SE10      30.06S
GUYMON         CLEAR     64  48  56 SE6       30.04R
HEREFORD       CLEAR     64  49  57 E17       30.08R
PAMPA          CLEAR     66  53  63 SE9       30.07R
PERRYTON       CLEAR     67  50  54 SE9       30.05R
$$

TXZ026-029-035-045-048-290500-
SOUTHERN PANHANDLE/SOUTH PLAINS/ROLLING PLAINS

CITY           SKY/WX    TMP DP  RH WIND       PRES   REMARKS
CHILDRESS      CLEAR     71  55  56 SE12      30.01R
SEMINOLE       CLEAR     74  46  35 S10       30.01R
LUBBOCK        CLOUDY    73  50  44 E13       30.05R
PLAINVIEW      CLEAR     66  49  54 SE12      30.06R
SNYDER         TSTM     N/A N/A N/A SE20G31   30.05R
$$

TXZ052-054-060>062-072-078-127-140-154-169-290500-
PERMIAN BASIN/CONCHO VALLEY/BIG COUNTRY/EDWARDS PLATEAU

CITY           SKY/WX    TMP DP  RH WIND       PRES   REMARKS
ABILENE        CLOUDY    78  67  68 E14       29.98S
BIG SPRING     CLOUDY    75  60  58 CALM      30.02R
BROWNWOOD      CLOUDY    79  70  73 SE9       30.00R
JUNCTION       CLOUDY    69  64  84 CALM      30.01R
MIDLAND        PTCLDY    79  59  50 E6        29.99R
ODESSA         CLEAR     81  62  52 E8        30.00R
SAN ANGELO     CLOUDY    73  61  65 E9        29.99R
SONORA         PTCLDY    73  59  60 E10G16    30.05R
SWEETWATER     CLOUDY    76  61  59 E13       30.00F
WINK           CLEAR     81  62  52 SE13      29.95R
$$

TXZ055-058-074-075-080-082-290500-
FAR WEST/SOUTHWEST MOUNTAINS/TRANS PECOS

CITY           SKY/WX    TMP DP  RH WIND       PRES   REMARKS
ALPINE         CLEAR     74  60  63 SE10      30.11R
DRYDEN           N/A     78  68  71 E8        29.93R
EL PASO        PTCLDY    76   2   5 NE8       29.96R
MARFA          CLEAR     71  59  65 E13       30.08R
PECOS          CLEAR     82  64  54 E13       29.93R
$$

TXZ014-016-019-021>030-083-290500
TEXAS TECH WEST TEXAS MESONET/TEXAS PANHANDLE/NORTHERN SOUTH PLAINS

CITY           SKY/WX    TMP DP  RH WIND       PRES   REMARKS
ABERNATHY 5ENE   N/A     68  51  55 E10       30.07R
AMARILLO 9NNE    N/A     67  50  54 SE16      30.06R
AMHERST 1NE      N/A     67  50  53 E13       30.07R
BOOTLEG 11WNW    N/A     64  38  38 SE15      30.12R
CANADIAN 6E      N/A     65  52  61 E10       30.03R
CAPROCK CYN SP   N/A     69  53  57 S5        30.07R
CHILDRESS 2NNE   N/A     67  56  67 SE9       30.03R
CLARENDON 2WSW   N/A     62  53  72 SE7       30.07R
CLAUDE 12SW      N/A     66  49  53 E9        30.09R
DIMMITT 2NE      N/A     66  48  51 E12       30.09R
FLOYDADA 2NNE    N/A     66  51  56 E10       30.06S
FRIONA 2NE       N/A     67  48  50 SE16      30.09R
GOODLETT 3W      N/A     68  58  69 E8        30.00S
HART 3N          N/A     67  48  51 E12       30.08S
HEREFORD 2NW     N/A     68  46  44 SE9       30.10R
MCLEAN 1E        N/A     66  52  61 E7        30.06R
MEMPHIS 1NE      N/A     68  55  62 NE5       30.04R
MULESHOE 2SSW    N/A     65  47  52 E10       30.08R
OLTON 6S         N/A     68  49  51 E15       30.08R
PALO DURO SP     N/A     71  47  43 SE9       30.09R
PAMPA 2E         N/A     63  53  69 SE8       30.08R
PLAINVIEW 1S     N/A     68  52  55 E10       30.08R
SILVERTON 7ESE   N/A     69  50  49 E15       30.06R
TULIA 2ENE       N/A     63  51  63 E8        30.08R
TURKEY 2WSW      N/A     70  54  56 SE7       30.05R
$$

TXZ033>036-039>041-045>048-290500
TEXAS TECH WEST TEXAS MESONET/SOUTH PLAINS

CITY           SKY/WX    TMP DP  RH WIND       PRES   REMARKS
AIKEN 3WSW       N/A     69  51  53 E13       30.09R
ANDREWS 2NE      N/A     74  47  37 SE9       30.03R
ANTON 6SSW       N/A     72  49  44 E16       30.05R
BROWNFIELD 2S    N/A     70  55  58 E12       30.05R
DENVR CTY 7WNW   N/A     65  35  32 SE8       30.04R
GAIL 2ESE        N/A     65  59  81 E13G21    30.00S
LAMESA 2SE       N/A     71  57  61 E12G20    30.02R
LEVELLAND 4S     N/A     73  47  39 E18       30.05R
ODONNELL 1N      N/A     68  56  65 E15       30.04R
PLAINS 3N        N/A     70  45  41 E8        30.04R
RALLS 1SE        N/A     71  52  49 E9        30.06S
SEAGRAVES 1SW    N/A     74  54  49 E8        30.03R
SEMINOLE 2NNE    N/A     73  47  40 SE6       30.02R
SLATON 2NE       N/A     71  53  52 SE9       30.07R
SNYDER 3E      HVY RAIN  64  63  94 SE3       30.06R
SUNDOWN 8SW      N/A     70  47  44 E10       30.05R
WOLFFORTH 6SSW   N/A     70  57  63 E13       30.05R
$$

TXZ031-032-036>038-042>044-290500-
TEXAS TECH WEST TEXAS MESONET/ROLLING PLAINS

CITY           SKY/WX    TMP DP  RH WIND       PRES   REMARKS
FLUVANNA 3WNW    N/A     66  59  79 E15       30.02R
GRAHAM 5SSW      N/A     69  55  60 N10       30.05R
GUTHRIE 10WSW    N/A     68  53  60 CALM      30.02R
HASKELL 1NW      N/A     75  57  54 NE7       30.00R
JAYTON 1SSE      N/A     77  53  44 SW8       29.99S
KNOX CITY 3NW    N/A     71  55  56 E8        30.00R
LK A HENRY 1NW   N/A     70  56  62 S5        30.00R
NORTHFIELD 1S    N/A     70  56  60 SE8       30.03R
ODELL 4ENE       N/A     74  64  71 E9        30.01R
PADUCAH 10SW     N/A     69  56  63 E5        30.02R
POST 1NE       RAIN      67  61  80 NW12      30.03R
RRING SPRGS 3N   N/A     68  55  63 NE7       30.05R
SEYMOUR 3NW      N/A     64  58  78 E6        29.99F
SPUR 1W          N/A     72  52  49 S1        30.02R
WEINERT 2NNE     N/A     69  59  72 E6        30.00R
WHITE RVR 6NE    N/A     71  52  50 NE8       30.04R
$$

TXZ052-054-060>062-072-078-127-140-154-169-290500-
TEXAS TECH WEST TEXAS MESONET/PERMIAN BASIN/
CONCHO VALLEY/BIG COUNTRY/EDWARDS PLATEAU

CITY           SKY/WX    TMP DP  RH WIND       PRES   REMARKS
COYANOSA 2N      N/A     78  66  66 E8        29.96R
JUNCTION 1SSW    N/A     70  63  79 W1        30.02F
MERTZON 3NNE     N/A     73  58  59 SE7       30.02R
SAN ANGELO 7NW   N/A     74  58  57 E9        30.00S
ST LAWRNCE 5SW   N/A     76  65  70 E8        30.00R
SWEETWATR 11SW   N/A     76  65  69 SE17      30.00R
WALL 1E          N/A     72  62  70 E21G28    30.00F
$$

TXZ055-058-074-075-080-082-290500-
TEXAS TECH WEST TEXAS MESONET/FAR WEST/SOUTHWEST MOUNTAINS/TRANS PECOS

CITY           SKY/WX    TMP DP  RH WIND       PRES   REMARKS
PRSMN GAP BBNP   N/A     79  64  60 N12       29.95R
GUADLPE MTN NP   N/A     69  14  12 E2        30.15R
$$



USA.gov is the U.S. government's official web portal to all federal, state and local government web resources and services.